Regional Weather Roundup
Issued by NWS

Home | Current Version | Previous Version | Graphics & Text | Print | Product List | Glossary On
Versions: 1 2 3 4 5 6 7 8 9 10 11 12 13 14 15 16 17 18 19 20 21 22 23 24 25 26 27 28 29 30 31 32 33 34 35 36 37 38 39 40 41 42 43 44 45 46 47 48 49 50
000
ASUS43 KIND 290609
RWRIN

WEATHER ROUNDUP FOR INDIANA
NATIONAL WEATHER SERVICE INDIANAPOLIS IN
200 AM EDT WED JUL 29 2015

NOTE: "FAIR" INDICATES FEW OR NO CLOUDS BELOW 12,000 FEET WITH NO
SIGNIFICANT WEATHER AND/OR OBSTRUCTIONS TO VISIBILITY.

* - STATION DOES NOT REPORT WEATHER SUCH AS PRECIPITATION OR FOG.

+ - STATION NOT QUALITY CONTROLLED BY THE NATIONAL WEATHER SERVICE.
    USE DATA WITH CAUTION...ESPECIALLY DEWPOINT AND RELATIVE
    HUMIDITY OBSERVATIONS.

INZ001>003-010>013-019-020-290700-
NORTHWEST INDIANA

CITY           SKY/WX    TMP DP  RH WIND       PRES   REMARKS
GARY /AIRPORT/ PTCLDY    79  75  89 SE3       29.93F
KNOX *+        PTCLDY    72  72 100 CALM      29.96F
LA PORTE +     PTCLDY    74  74 100 CALM      29.97F
6HR MIN TEMP:  74; 6HR MAX TEMP:  86;

MICHIGAN CITY+ MOCLDY    73  73 100 CALM      29.96F
MONTICELLO +   CLEAR     76  76 100 CALM      29.97S
6HR MIN TEMP:  75; 6HR MAX TEMP:  85;

RENSSELAER +   PTCLDY    73  73 100 CALM      29.96F
VALPARAISO     PTCLDY    76  72  87 CALM      29.97F
6HR MIN TEMP:  74; 6HR MAX TEMP:  86; 6HR PCP: TRACE;


$$

LMZ046-743>745-290700-
SOUTHERN LAKE MICHIGAN

STATION/POSITION TIME  TEMP    WIND        PRES    WAVE
                       AIR SEA DIR/SP/G            HT
                 (UTC) (F)     (DEG/KT/KT) (MB)    (FT)
BURNS HARBOR     0600   80     170/  4/ 20 1013.9F
MICHIGAN CITY    0500   80     130/  6/  7   N/A
5NW MICH CITY    0600   76 75  180/  6/  6   N/A     0

$$

INZ004-005-014>016-021>024-290700-
NORTH CENTRAL INDIANA

CITY           SKY/WX    TMP DP  RH WIND       PRES   REMARKS
GOSHEN         CLEAR     75  68  78 SE6       29.98F
6HR MIN TEMP:  73; 6HR MAX TEMP:  85; 6HR PCP: TRACE;

LOGANSPORT +   CLEAR     72  68  88 CALM      29.98S FOG
ROCHESTER +    CLEAR     75  75 100 CALM      29.98S
SOUTH BEND     PTCLDY    78  71  79 CALM      29.98S
6HR MIN TEMP:  77; 6HR MAX TEMP:  87;

WARSAW +       CLEAR     72  70  94 CALM      29.99S

$$

INZ006>009-017-018-025>027-290700-
NORTHEAST INDIANA

CITY           SKY/WX    TMP DP  RH WIND       PRES   REMARKS
ANGOLA *+      MOCLDY    75  66  73 SE5       30.01S
AUBURN +       MOCLDY    72  64  78 CALM      30.01S
FORT WAYNE     PTCLDY    75  71  87 CALM      29.99S
6HR MIN TEMP:  74; 6HR MAX TEMP:  86; 6HR PCP: TRACE;

HUNTINGTON +   PTCLDY    76  73  90 CALM      29.98F
6HR MIN TEMP:  74; 6HR MAX TEMP:  85;


$$

INZ028-029-035-036-043>045-051>053-290700-
WEST CENTRAL INDIANA

CITY           SKY/WX    TMP DP  RH WIND       PRES   REMARKS
CRAWFORDSVL +  FAIR      72  72 100 CALM        N/A  FOG
6HR MIN TEMP:  72; 6HR MAX TEMP:  83; 6HR PCP:  0.01;

GREENCASTLE +  CLEAR     73  70  88 CALM      29.98F FOG
LAFAYETTE      CLEAR     75  74  96 CALM      29.96F FOG
6HR MIN TEMP:  74; 6HR MAX TEMP:  84;

TERRE HAUTE    PTCLDY    75  73  93 CALM      29.96F
6HR MIN TEMP:  75; 6HR MAX TEMP:  87;


$$

INZ030>032-037>040-046>048-054>057-064-065-290700-
CENTRAL INDIANA

CITY           SKY/WX    TMP DP  RH WIND       PRES   REMARKS
FISHERS *+     CLEAR     73  73 100 CALM      29.99S
FRANKFORT +    CLEAR    N/A N/A N/A CALM      30.00S HAZE
GREENWOOD *+   CLEAR     73  70  88 CALM      29.99S
INDIANAPOLIS   MOCLDY    79  73  82 E3        29.97S
6HR MIN TEMP:  79; 6HR MAX TEMP:  86;

-EAGLE CREEK   MOCLDY    77  74  90 CALM      29.98S
6HR MIN TEMP:  77; 6HR MAX TEMP:  86;

KOKOMO *+      CLEAR     73  70  88 SE3       29.98F
6HR MIN TEMP:  73; 6HR MAX TEMP:  88;

MARION +       MOCLDY    73  72  97 CALM      30.00S FOG
MT COMFORT *+    N/A     72 N/A N/A CALM      29.99F
SHELBYVILLE    FOG       75  72  90 CALM      29.97F VSB 3/4
6HR MIN TEMP:  75; 6HR MAX TEMP:  86; 6HR PCP: TRACE;

ZIONSVILLE +   CLEAR     73  70  91 CALM      30.00S FOG
6HR MIN TEMP:  73; 6HR MAX TEMP:  83;


$$

INZ033-034-041-042-049-050-058-059-290700-
EAST CENTRAL INDIANA

CITY           SKY/WX    TMP DP  RH WIND       PRES   REMARKS
MUNCIE         CLEAR     73  71  93 CALM      30.00R
6HR MIN TEMP:  73; 6HR MAX TEMP:  84;


$$

INZ060-061-067>069-081>083-085>088-290700-
SOUTHWEST INDIANA

CITY           SKY/WX    TMP DP  RH WIND       PRES   REMARKS
EVANSVILLE     MOCLDY    76  73  91 SW3       29.99R
6HR MIN TEMP:  76; 6HR MAX TEMP:  84;

HUNTINGBURG *+ PTCLDY    75  72  88 CALM      29.99S
6HR MIN TEMP:  75; 6HR MAX TEMP:  88;

WASHINGTON +   MOCLDY    76  72  87 CALM      29.97S
6HR MIN TEMP:  75; 6HR MAX TEMP:  81; 6HR PCP:  0.01;


$$

INZ062-063-066-070>080-084-089>092-290700-
SOUTH CENTRAL AND SOUTHEAST INDIANA

CITY           SKY/WX    TMP DP  RH WIND       PRES   REMARKS
BLOOMINGTON    CLEAR     74  73  97 CALM      29.99R FOG
6HR MIN TEMP:  74; 6HR MAX TEMP:  86;

MADISON *+     CLEAR     73  72  94 CALM      30.01S
NORTH VERNON + CLEAR     77  77 100 CALM      29.98F FOG
SEYMOUR +        N/A     73  73 100 S5        29.97S FOG

$$



USA.gov is the U.S. government's official web portal to all federal, state and local government web resources and services.